Location: Ida Center
(41.8662°N, 83.5713°W)
Time: 08:06:07
(UTC+00:00)

Cosmos 1666 Rocket - Pass Details

Date: 17 November 2019
Orbit: 603 x 634 km, 82.5° (Epoch: 13 December)

Event Time Altitude Azimuth Distance (km) Brightness Sun altitude
Rises 23:24:46 0° 352° (N) 2,892 6.9 -13.6°
Reaches altitude 10° 23:27:00 10° 354° (N) 1,977 6.1 -14.0°
Maximum altitude 23:31:23 83° 83° (E) 618 3.4 -14.8°
Drops below altitude 10° 23:35:42 10° 171° (S) 1,947 6.1 -15.6°
Sets 23:37:53 0° 172° (S) 2,843 7.0 -16.0°
